Time,TemperatureF,DewpointF,PressureIn,WindDirection,WindDirectionDegrees,WindSpeedMPH,WindSpeedGustMPH,Humidity,HourlyPrecipIn,Conditions,Clouds,dailyrainin,SolarRadiationWatts/m^2,SoftwareType,DateUTC
2013-08-15 00:03:00,65.0,60.0,-100.00,NE,34,0.0,1.0,84,0.00,,,0.00,0.000000,,2013-08-15 04:03:00,
2013-08-15 00:43:00,65.0,56.0,-100.00,NE,37,1.0,3.0,73,0.00,,,-99.99,0.000000,,2013-08-15 04:43:00,
2013-08-15 00:52:00,65.0,56.0,-100.00,NE,37,1.0,3.0,73,0.00,,,-99.99,0.000000,,2013-08-15 04:52:00,
2013-08-15 01:02:00,65.0,56.0,-100.00,NE,37,1.0,3.0,73,0.00,,,-99.99,0.000000,,2013-08-15 05:02:00,
2013-08-15 01:42:00,62.0,55.0,-100.00,NNE,25,1.0,2.0,79,0.00,,,0.00,0.000000,,2013-08-15 05:42:00,
2013-08-15 01:52:00,62.0,55.0,-100.00,NNE,25,1.0,2.0,79,0.00,,,0.00,0.000000,,2013-08-15 05:52:00,
2013-08-15 02:02:00,62.0,55.0,-100.00,NNE,25,1.0,2.0,79,0.00,,,0.00,0.000000,,2013-08-15 06:02:00,
2013-08-15 02:21:00,62.0,52.0,-100.00,NNE,15,2.0,4.0,70,0.00,,,0.00,0.000000,,2013-08-15 06:21:00,
2013-08-15 02:32:00,62.0,52.0,-100.00,NNE,15,2.0,4.0,70,0.00,,,0.00,0.000000,,2013-08-15 06:32:00,
2013-08-15 02:42:00,62.0,52.0,-100.00,NNE,15,2.0,4.0,70,0.00,,,0.00,0.000000,,2013-08-15 06:42:00,
2013-08-15 02:52:00,62.0,52.0,-100.00,NNE,15,2.0,4.0,70,0.00,,,0.00,0.000000,,2013-08-15 06:52:00,
2013-08-15 03:02:00,62.0,52.0,-100.00,NNE,15,2.0,4.0,70,0.00,,,0.00,0.000000,,2013-08-15 07:02:00,
2013-08-15 03:21:00,62.0,54.0,-100.00,NE,41,2.0,3.0,74,0.00,,,0.00,0.000000,,2013-08-15 07:21:00,
2013-08-15 03:32:00,62.0,54.0,-100.00,NE,41,2.0,3.0,74,0.00,,,0.00,0.000000,,2013-08-15 07:32:00,
2013-08-15 03:42:00,62.0,54.0,-100.00,NE,41,2.0,3.0,74,0.00,,,0.00,0.000000,,2013-08-15 07:42:00,
2013-08-15 03:52:00,62.0,54.0,-100.00,NE,41,2.0,3.0,74,0.00,,,0.00,0.000000,,2013-08-15 07:52:00,
2013-08-15 04:02:00,62.0,54.0,-100.00,NE,41,2.0,3.0,74,0.00,,,0.00,0.000000,,2013-08-15 08:02:00,
2013-08-15 04:21:00,60.0,51.0,-100.00,NNE,24,1.0,3.0,73,0.00,,,0.00,0.000000,,2013-08-15 08:21:00,
2013-08-15 04:33:00,60.0,51.0,-100.00,NNE,24,1.0,3.0,73,0.00,,,0.00,0.000000,,2013-08-15 08:33:00,
2013-08-15 04:42:00,60.0,51.0,-100.00,NNE,24,1.0,3.0,73,0.00,,,0.00,0.000000,,2013-08-15 08:42:00,
2013-08-15 04:52:00,60.0,51.0,-100.00,NNE,24,1.0,3.0,73,0.00,,,0.00,0.000000,,2013-08-15 08:52:00,
2013-08-15 05:01:00,60.0,51.0,-100.00,NNE,24,1.0,3.0,73,0.00,,,0.00,0.000000,,2013-08-15 09:01:00,
2013-08-15 05:42:00,59.0,51.0,-100.00,NNE,23,1.0,3.0,75,0.00,,,0.00,0.000000,,2013-08-15 09:42:00,
2013-08-15 05:53:00,59.0,51.0,-100.00,NNE,23,1.0,3.0,75,0.00,,,0.00,0.000000,,2013-08-15 09:53:00,
2013-08-15 06:03:00,59.0,51.0,-100.00,NNE,23,1.0,3.0,75,0.00,,,0.00,0.000000,,2013-08-15 10:03:00,
2013-08-15 06:42:00,58.0,55.0,-100.00,NE,45,0.0,2.0,89,0.00,,,0.00,0.000000,,2013-08-15 10:42:00,
2013-08-15 06:52:00,58.0,55.0,-100.00,NE,45,0.0,2.0,89,0.00,,,0.00,0.000000,,2013-08-15 10:52:00,
2013-08-15 07:02:00,58.0,55.0,-100.00,NE,45,0.0,2.0,89,0.00,,,0.00,0.000000,,2013-08-15 11:02:00,
2013-08-15 07:42:00,59.0,52.0,-100.00,NNE,31,1.0,2.0,79,0.00,,,0.00,2.000000,,2013-08-15 11:42:00,
2013-08-15 07:52:00,59.0,52.0,-100.00,NNE,31,1.0,2.0,79,0.00,,,0.00,2.000000,,2013-08-15 11:52:00,
2013-08-15 08:01:00,59.0,52.0,-100.00,NNE,31,1.0,2.0,79,0.00,,,0.00,2.000000,,2013-08-15 12:01:00,
2013-08-15 08:21:00,61.0,54.0,-100.00,NE,48,2.0,4.0,78,0.00,,,0.00,39.000000,,2013-08-15 12:21:00,
2013-08-15 08:32:00,61.0,54.0,-100.00,NE,48,2.0,4.0,78,0.00,,,0.00,39.000000,,2013-08-15 12:32:00,
2013-08-15 08:42:00,61.0,54.0,-100.00,NE,48,2.0,4.0,78,0.00,,,0.00,39.000000,,2013-08-15 12:42:00,
2013-08-15 08:52:00,61.0,54.0,-100.00,NE,48,2.0,4.0,78,0.00,,,0.00,39.000000,,2013-08-15 12:52:00,
2013-08-15 09:01:00,61.0,54.0,-100.00,NE,48,2.0,4.0,78,0.00,,,0.00,39.000000,,2013-08-15 13:01:00,
2013-08-15 09:21:00,65.0,56.0,-100.00,NE,52,2.0,5.0,74,0.00,,,0.00,81.000000,,2013-08-15 13:21:00,
2013-08-15 09:32:00,65.0,56.0,-100.00,NE,52,2.0,5.0,74,0.00,,,0.00,81.000000,,2013-08-15 13:32:00,
2013-08-15 09:42:00,65.0,56.0,-100.00,NE,52,2.0,5.0,74,0.00,,,0.00,81.000000,,2013-08-15 13:42:00,
2013-08-15 09:52:00,65.0,56.0,-100.00,NE,52,2.0,5.0,74,0.00,,,0.00,81.000000,,2013-08-15 13:52:00,
2013-08-15 10:02:00,65.0,56.0,-100.00,NE,52,2.0,5.0,74,0.00,,,0.00,81.000000,,2013-08-15 14:02:00,
2013-08-15 10:04:00,65.0,55.0,-100.00,NE,54,2.0,7.0,69,0.00,,,0.00,245.000000,,2013-08-15 14:04:00,
2013-08-15 10:47:00,65.0,55.0,-100.00,NE,54,2.0,7.0,69,0.00,,,0.00,245.000000,,2013-08-15 14:47:00,
2013-08-15 10:56:00,65.0,55.0,-100.00,NE,54,2.0,7.0,69,0.00,,,0.00,245.000000,,2013-08-15 14:56:00,
2013-08-15 11:04:00,67.0,54.0,-100.00,East,83,2.0,8.0,63,0.00,,,0.00,352.000000,,2013-08-15 15:04:00,
2013-08-15 11:43:00,67.0,54.0,-100.00,East,83,2.0,8.0,63,0.00,,,0.00,352.000000,,2013-08-15 15:43:00,
2013-08-15 11:54:00,67.0,54.0,-100.00,East,83,2.0,8.0,63,0.00,,,0.00,352.000000,,2013-08-15 15:54:00,
2013-08-15 12:04:00,68.0,54.0,-100.00,East,79,2.0,7.0,60,0.00,,,0.00,423.000000,,2013-08-15 16:04:00,
2013-08-15 12:26:00,68.0,54.0,-100.00,East,79,2.0,7.0,60,0.00,,,0.00,423.000000,,2013-08-15 16:26:00,
2013-08-15 12:35:00,68.0,54.0,-100.00,East,79,2.0,7.0,60,0.00,,,0.00,423.000000,,2013-08-15 16:35:00,
2013-08-15 12:44:00,68.0,54.0,-100.00,East,79,2.0,7.0,60,0.00,,,0.00,423.000000,,2013-08-15 16:44:00,
2013-08-15 12:55:00,68.0,54.0,-100.00,East,79,2.0,7.0,60,0.00,,,0.00,423.000000,,2013-08-15 16:55:00,
2013-08-15 13:04:00,69.0,55.0,-100.00,ENE,72,2.0,7.0,60,0.00,,,0.00,421.000000,,2013-08-15 17:04:00,
2013-08-15 13:55:00,69.0,55.0,-100.00,ENE,72,2.0,7.0,60,0.00,,,0.00,421.000000,,2013-08-15 17:55:00,
2013-08-15 14:00:00,-999.0,-99.9,-100.00,ENE,72,2.0,7.0,-999,-99.99,,,-99.99,421.000000,,2013-08-15 18:00:00,
2013-08-15 14:04:00,-999.0,-99.9,-100.00,NE,56,2.0,4.0,-999,0.00,,,0.00,494.000000,,2013-08-15 18:04:00,
2013-08-15 14:36:00,-999.0,-99.9,-100.00,NE,56,2.0,4.0,-999,0.00,,,0.00,494.000000,,2013-08-15 18:36:00,
2013-08-15 14:49:00,71.0,56.0,-100.00,NE,56,2.0,4.0,60,0.00,,,0.00,494.000000,,2013-08-15 18:49:00,
2013-08-15 15:04:00,71.0,56.0,-100.00,NNE,27,2.0,5.0,59,0.00,,,0.00,445.000000,,2013-08-15 19:04:00,
2013-08-15 15:34:00,-999.0,-99.9,-100.00,NNE,27,2.0,5.0,-999,-99.99,,,-99.99,445.000000,,2013-08-15 19:34:00,
2013-08-15 15:49:00,71.0,56.0,-100.00,NNE,27,2.0,5.0,59,0.00,,,0.00,445.000000,,2013-08-15 19:49:00,
2013-08-15 16:04:00,72.0,56.0,-100.00,NE,41,2.0,7.0,58,0.00,,,0.00,505.000000,,2013-08-15 20:04:00,
2013-08-15 16:46:00,72.0,56.0,-100.00,NE,41,2.0,7.0,58,0.00,,,0.00,505.000000,,2013-08-15 20:46:00,
2013-08-15 17:04:00,71.0,56.0,-100.00,ENE,57,1.0,6.0,60,0.00,,,0.00,382.000000,,2013-08-15 21:04:00,
2013-08-15 17:41:00,71.0,56.0,-100.00,ENE,57,1.0,6.0,60,0.00,,,0.00,382.000000,,2013-08-15 21:41:00,
2013-08-15 17:49:00,71.0,56.0,-100.00,ENE,57,1.0,6.0,60,0.00,,,0.00,382.000000,,2013-08-15 21:49:00,
2013-08-15 17:57:00,71.0,56.0,-100.00,ENE,57,1.0,6.0,60,0.00,,,0.00,382.000000,,2013-08-15 21:57:00,
2013-08-15 18:04:00,70.0,56.0,-100.00,ENE,62,2.0,4.0,62,0.00,,,0.00,207.000000,,2013-08-15 22:04:00,
2013-08-15 18:29:00,70.0,56.0,-100.00,ENE,62,2.0,4.0,62,0.00,,,0.00,207.000000,,2013-08-15 22:29:00,
2013-08-15 18:40:00,70.0,56.0,-100.00,ENE,62,2.0,4.0,62,0.00,,,0.00,207.000000,,2013-08-15 22:40:00,
2013-08-15 18:49:00,70.0,56.0,-100.00,ENE,62,2.0,4.0,62,0.00,,,0.00,207.000000,,2013-08-15 22:49:00,
2013-08-15 18:58:00,70.0,56.0,-100.00,ENE,62,2.0,4.0,62,0.00,,,0.00,207.000000,,2013-08-15 22:58:00,
2013-08-15 19:04:00,69.0,56.0,-100.00,ESE,119,1.0,3.0,64,0.00,,,0.00,126.000000,,2013-08-15 23:04:00,
2013-08-15 19:35:00,-999.0,-99.9,-100.00,ESE,119,1.0,3.0,64,0.00,,,0.00,126.000000,,2013-08-15 23:35:00,
2013-08-15 19:48:00,69.0,56.0,-100.00,ESE,119,1.0,3.0,64,0.00,,,0.00,126.000000,,2013-08-15 23:48:00,
2013-08-15 19:55:00,69.0,56.0,-100.00,ESE,119,1.0,3.0,64,0.00,,,0.00,126.000000,,2013-08-15 23:55:00,
2013-08-15 20:04:00,65.0,59.0,-100.00,NNW,345,0.0,1.0,81,0.00,,,0.00,50.000000,,2013-08-16 00:04:00,
2013-08-15 20:46:00,65.0,59.0,-100.00,NNW,345,0.0,1.0,81,0.00,,,0.00,50.000000,,2013-08-16 00:46:00,
2013-08-15 20:52:00,65.0,59.0,-100.00,NNW,345,0.0,1.0,81,0.00,,,0.00,50.000000,,2013-08-16 00:52:00,
2013-08-15 21:43:00,-999.0,-99.9,-100.00,NNW,339,0.0,-999.0,-999,-99.99,,,-99.99,,,2013-08-16 01:43:00,
2013-08-15 21:54:00,62.0,59.0,-100.00,NNW,339,0.0,2.0,90,0.00,,,0.00,2.000000,,2013-08-16 01:54:00,
2013-08-15 22:02:00,62.0,59.0,-100.00,NNW,339,0.0,2.0,90,0.00,,,0.00,2.000000,,2013-08-16 02:02:00,
2013-08-15 22:44:00,60.0,59.0,-100.00,North,359,0.0,2.0,95,0.00,,,0.00,0.000000,,2013-08-16 02:44:00,
2013-08-15 22:52:00,60.0,59.0,-100.00,North,359,0.0,2.0,95,0.00,,,0.00,0.000000,,2013-08-16 02:52:00,
2013-08-15 23:03:00,60.0,59.0,-100.00,North,359,0.0,2.0,95,0.00,,,0.00,0.000000,,2013-08-16 03:03:00,
2013-08-15 23:43:00,58.0,57.0,-100.00,WSW,252,0.0,1.0,97,0.00,,,0.00,0.000000,,2013-08-16 03:43:00,
2013-08-15 23:53:00,58.0,57.0,-100.00,WSW,252,0.0,1.0,97,0.00,,,0.00,0.000000,,2013-08-16 03:53:00,